SUR4070 SPJC-SLLP

Flight info

Callsign SUR4070
Flight time N/A
Altitude 31000
Route PAKOL5 KULIS UM415 JUL UM657 ELAKO ELAK1A
Aircraft E175/L-S/1200

Departure

Time N/A
Airport Jorge Chávez International Airport (SPJC)

Arrival

Time 2026-04-22 17:06
Airport El Alto International Airport (SLLP)
Time Latitude Longitude Altitude Speed Heading
2026-04-22 17:06 -16.51360 -68.18424 13306 ft 7 kts 88°
2026-04-22 17:06 -16.51350 -68.18360 13310 ft 12 kts 75°
2026-04-22 17:06 -16.51324 -68.18292 13315 ft 7 kts 64°
2026-04-22 17:07 -16.51305 -68.18254 13317 ft 3 kts 60°
2026-04-22 17:07 -16.51289 -68.18227 13320 ft 5 kts 59°
2026-04-22 17:07 -16.51286 -68.18220 13320 ft 0 kts 58°
2026-04-22 17:07 -16.51285 -68.18219 13320 ft 2 kts 58°
2026-04-22 17:08 -16.51257 -68.18178 13324 ft 6 kts 52°
2026-04-22 17:08 -16.51238 -68.18153 13326 ft 3 kts 52°
2026-04-22 17:08 -16.51219 -68.18130 13328 ft 4 kts 47°
2026-04-22 17:08 -16.51205 -68.18115 13330 ft 1 kts 47°
2026-04-22 17:09 -16.51191 -68.18098 13332 ft 5 kts 49°
2026-04-22 17:09 -16.51168 -68.18072 13336 ft 4 kts 49°
2026-04-22 17:09 -16.51158 -68.18059 13337 ft 3 kts 49°
2026-04-22 17:09 -16.51124 -68.18019 13342 ft 8 kts 47°
2026-04-22 17:10 -16.51088 -68.17979 13346 ft 5 kts 46°
2026-04-22 17:10 -16.51068 -68.17959 13348 ft 5 kts 44°
2026-04-22 17:10 -16.51037 -68.17928 13351 ft 4 kts 49°
2026-04-22 17:10 -16.51021 -68.17907 13352 ft 1 kts 53°
2026-04-22 17:11 -16.51001 -68.17881 13355 ft 6 kts 36°
2026-04-22 17:11 -16.50978 -68.17874 13356 ft 0 kts